Location: Pine Mountain Observatory
(43.7910°N, 120.9377°W)
Time: 16:32:06
(UTC-07:00)

Daily predictions for brighter satellites

Satellite Brightness Start Highest point End
(mag) Time Altitude Azimuth Time Altitude Azimuth Time Altitude Azimuth
Molniya-1 4.3 20:25:44 10° SSE 20:26:47 14° ESE 20:28:00 10° ENE
ERS-1 Rocket 4.5 20:23:19 10° ESE 20:26:54 20° ENE 20:30:29 10° NNE
Cosmos 1486 Rocket 4.1 20:22:14 10° NNW 20:27:25 61° ENE 20:32:36 10° SSE
Cosmos 1455 2.3 20:23:57 10° S 20:27:40 52° E 20:31:21 10° NNE
OTV 4 2.9 20:30:23 10° SW 20:31:25 11° SSW 20:32:29 10° S
Cosmos 1869 4.0 20:28:46 10° SSE 20:32:17 32° E 20:35:50 10° NNE
Meteor 1-27 4.4 20:27:49 10° SSW 20:33:26 79° W 20:39:02 10° N
Cosmos 1400 Rocket 3.3 20:34:00 10° NNW 20:37:51 63° W 20:41:44 10° S
Cosmos 1892 3.3 20:39:33 10° NNW 20:43:18 60° W 20:47:02 10° S
SeaSat 1 4.1 20:40:29 10° E 20:44:02 20° NE 20:47:36 10° N
Milstar 3 4.2 20:39:25 10° WSW 20:45:48 24° S 20:50:57 10° SE
Cosmos 1697 Rocket 3.6 20:40:43 10° SW 20:46:15 56° WNW 20:51:49 10° NNE
USA 186 1.4 20:43:54 10° S 20:46:33 79° W 20:49:26 10° NNW
CENTAUR R/B 3.2 20:40:46 10° SW 20:46:48 61° NW 20:53:45 10° NNE
Cosmos 2026 Rocket 4.2 20:41:22 10° N 20:47:27 51° ENE 20:53:25 10° SSE
ALOS 4.3 20:45:49 10° SSW 20:49:53 29° W 20:53:59 10° NW
Cosmos 1315 Rocket 2.9 20:46:16 10° N 20:50:23 88° WSW 20:54:25 10° S
H-2A R/B 4.4 20:48:30 10° SSW 20:52:07 35° W 20:55:42 10° NNW
Abrixas rocket 2.1 20:50:43 10° WSW 20:54:00 75° SSE 20:57:16 10° ENE
YAOGAN 6 3.6 20:54:41 15° SE 20:57:08 29° ENE 21:00:20 10° N
Cosmos 1503 Rocket 4.1 20:53:21 10° NNW 20:58:35 59° ENE 21:03:11 13° SE
CZ-3B DEB 3.3 20:55:59 10° WNW 20:58:53 17° WSW 21:00:55 10° SSW
Cosmos 1354 Rocket 4.1 20:56:42 10° NNW 21:01:59 64° ENE 21:06:35 13° SSE
Cosmos 2263 Rocket 2.8 20:56:53 10° NNW 21:02:07 39° ENE 21:06:05 16° ESE
Cosmos 1707 Rocket 3.8 20:57:44 10° SSW 21:02:11 75° W 21:06:37 10° N
Cosmos 1634 Rocket 4.0 21:00:37 10° S 21:06:54 85° E 21:13:16 10° N
Cosmos 2322 Rocket 2.3 21:01:35 10° S 21:06:57 49° ESE 21:12:21 10° NE
H-2A R/B 3.8 21:04:41 11° E 21:07:00 15° ENE 21:09:45 10° NNE
Cosmos 1092 Rocket 4.4 21:00:57 10° NNW 21:07:15 69° W 21:13:32 10° S
Meteor 1-29 2.9 21:04:03 10° NNE 21:07:33 70° ESE 21:11:00 10° S
Cosmos 1733 Rocket 3.4 21:03:58 10° N 21:08:18 48° ENE 21:11:35 16° SSE
Cosmos 1655 Rocket 4.1 21:03:20 10° N 21:09:42 62° E 21:15:50 11° SSE
Helios 1B rocket 2.4 21:06:32 10° NNE 21:10:40 87° W 21:14:45 10° SSW
Lacrosse 4 Rocket 1.5 21:08:50 10° NNW 21:13:08 67° ENE 21:16:00 21° SE
Cosmos 1862 Rocket 3.9 21:11:07 11° SSE 21:15:09 44° E 21:19:25 10° NNE
Cosmos 1825 2.1 21:11:23 10° N 21:15:12 78° E 21:18:15 15° SSE
Cosmos 1862 3.4 21:13:21 10° N 21:17:19 56° E 21:19:52 21° SSE
Cosmos 2360 Rocket 3.2 21:15:51 18° SE 21:18:12 24° ESE 21:22:39 10° NE
Cosmos 1980 Rocket 3.2 21:13:19 10° SW 21:18:50 51° WNW 21:24:24 10° NNE
BREEZE-M DEB (TANK) 4.4 21:16:17 10° WNW 21:21:13 81° NNE 21:43:10 10° ESE
Meteor 2-20 Rocket 4.5 21:15:32 10° N 21:21:40 85° W 21:27:47 10° S
USA 267 4.5 21:17:01 10° NE 21:23:07 43° NNW 21:29:12 10° W
CZ-4B DEB 3.4 21:20:41 12° S 21:23:21 50° W 21:26:21 10° NNW
Cosmos 968 Rocket 4.4 21:19:19 10° N 21:23:58 32° ENE 21:26:25 22° ESE
Cosmos 1939 Rocket 3.1 21:21:31 12° S 21:25:20 70° WSW 21:29:22 10° NNW
Envisat 3.5 21:24:00 10° S 21:29:00 60° W 21:34:03 10° NNW
Cosmos 2242 Rocket 3.7 21:24:40 10° S 21:29:12 80° W 21:33:43 10° N
SL-16 R/B 2.1 21:28:17 10° SSW 21:33:56 80° ESE 21:39:38 10° NNE
Cosmos 2266 Rocket 4.5 21:29:18 10° N 21:35:14 43° ENE 21:38:21 26° SE
SPOT 5 3.4 21:34:05 27° ESE 21:36:08 42° ENE 21:40:34 10° N
Intercosmos 25 Rocket 3.8 21:37:30 10° SSW 21:40:35 54° WNW 21:44:26 10° N
ATLAS 5 CENTAUR R/B 2.7 21:38:24 10° NNW 21:44:12 55° NE 21:47:28 28° ESE
OAO 3 Rocket 4.2 21:40:01 10° WSW 21:44:17 29° S 21:44:57 28° SSE
Resurs 01 Rocket 4.4 21:42:58 10° WSW 21:45:17 14° W 21:47:36 10° WNW
MetOp-B 4.1 21:44:34 28° SSE 21:47:22 69° ENE 21:52:43 10° N
Cosmos 2279 Rocket 4.1 21:43:00 10° SSW 21:49:15 78° W 21:55:30 10° N
Meteor 1-26 Rocket 4.4 21:48:41 27° SSE 21:51:41 55° E 21:57:18 10° NNE
Cosmos 2278 Rocket 4.4 21:50:44 10° NNE 21:53:21 13° NE 21:55:58 10° ENE
SPOT 1/Viking Rocket 4.0 21:52:06 34° ESE 21:53:49 45° ENE 21:58:48 10° N
ARGOS 3.2 21:53:22 34° SE 21:55:35 63° ENE 22:00:54 10° N
Cosmos 1408 4.4 21:52:59 10° NNW 21:56:14 29° W 21:59:05 12° SSW
Cosmos 489 Rocket 4.5 21:51:48 10° NNW 21:58:11 74° ENE 22:01:08 34° SSE
USA 234 4.0 21:54:42 21° S 21:58:45 42° SW 22:04:56 10° WNW
ERBS 4.0 21:55:53 10° WNW 21:58:46 25° SW 21:59:22 24° SW
Atlas Centaur 2 3.9 21:53:15 10° SW 21:59:18 26° SSE 21:59:34 26° SSE
ERS-1 Rocket 3.5 22:02:11 22° S 22:05:16 56° W 22:10:13 10° NNW
Cosmos 1844 Rocket 3.8 22:00:56 10° N 22:05:50 30° NE 22:07:24 26° E
Sich 1 Rocket 3.5 22:03:16 10° N 22:07:45 89° W 22:08:57 49° S
MOS 1-B Rocket 3.8 22:16:43 39° SSE 22:19:09 89° ENE 22:24:50 10° NNW
SeaSat 1 2.5 22:19:46 48° S 22:21:05 71° WSW 22:26:03 10° NNW
H-2A R/B 2.8 22:21:27 39° ENE 22:21:27 39° ENE 22:25:16 10° N
Cosmos 1777 Rocket 4.3 22:17:23 10° NNW 22:22:32 51° ENE 22:23:17 47° E
Meteor 1-14 Rocket 4.2 22:17:17 10° N 22:22:57 89° W 22:24:46 46° S
Cosmos 1908 Rocket 3.9 22:20:12 10° NNW 22:24:29 58° W 22:25:26 46° SW
Cosmos 2219 Rocket 4.0 22:27:00 17° ENE 22:27:00 17° ENE 22:28:48 10° NE
USA 245 4.4 22:23:32 37° S 22:25:56 73° WSW 22:31:13 10° NNW
Landsat 7 3.8 22:29:02 60° E 22:29:17 61° ENE 22:34:00 10° N
Abrixas rocket 3.6 22:27:52 10° W 22:30:44 37° NNW 22:30:44 37° NNW
Cosmos 2237 4.1 22:37:21 62° SE 22:37:44 63° ESE 22:43:24 10° NNE
Cosmos 1782 Rocket 3.6 22:34:04 10° NNW 22:38:25 72° W 22:38:32 71° WSW
Okean 2 Rocket 3.0 22:34:34 10° N 22:38:59 81° NE 22:38:59 81° NE
DMSP B5D2-2 4.2 22:34:22 10° NNE 22:39:21 56° E 22:39:21 56° E
Meteor 1-25 Rocket 4.1 22:36:24 10° NNW 22:42:01 85° W 22:43:00 62° S
USA 229 DEB 3.5 22:39:03 27° SSW 22:43:04 72° ESE 22:49:59 10° NE
USA 229 3.5 22:39:21 28° SSW 22:43:09 71° ESE 22:50:05 10° NE
Cosmos 1867 3.6 22:37:56 10° NW 22:43:23 70° WSW 22:44:01 63° SSW
Terra 2.0 22:44:38 60° ENE 22:44:38 60° ENE 22:49:08 10° N
H-2A R/B 1.9 22:45:19 68° SSW 22:45:50 76° WSW 22:50:50 10° NNW
Cosmos 2263 Rocket 3.5 22:41:02 10° NW 22:45:55 32° WSW 22:47:48 26° SW
COSMOS 2428 2.9 22:46:58 54° E 22:46:58 54° E 22:51:58 10° NNE
IGS 5A 4.2 22:48:08 46° NNE 22:48:08 46° NNE 22:51:20 10° N
Cosmos 2322 Rocket 4.1 22:46:29 10° WSW 22:51:15 28° NW 22:56:03 10° N
Lacrosse 4 Rocket 4.0 22:49:18 10° WNW 22:51:19 13° WSW 22:52:23 12° WSW
Cosmos 1606 4.5 23:03:14 28° NNE 23:03:14 28° NNE 23:05:06 10° N
Cosmos 2360 Rocket 2.9 22:57:27 16° SW 23:01:49 52° WNW 23:07:23 10° NNE
Meteor 1-20 Rocket 4.4 22:58:20 10° NNW 23:03:49 63° W 23:04:29 58° SW
Cosmos 1844 3.7 22:59:55 10° NNW 23:05:35 64° ENE 23:05:37 64° ENE
deb Chang Zheng 4 4.3 23:02:01 10° NNE 23:05:15 49° NNE 23:05:15 49° NNE
Cosmos 2322 4.3 23:04:16 24° SW 23:07:34 55° WNW 23:13:11 10° NNE
Geosat 4.0 23:03:22 10° NNE 23:08:19 80° NW 23:08:19 80° NW
Cosmos 1417 Rocket 4.3 23:08:23 74° SE 23:08:46 77° E 23:15:08 10° N
Okean 1-7 4.0 23:09:00 42° W 23:09:04 42° WNW 23:13:17 10° N
Cosmos 1782 4.1 23:10:30 39° NNW 23:10:30 39° NNW 23:13:12 10° N
Cosmos 1745 Rocket 4.2 23:02:59 10° N 23:09:12 57° ENE 23:09:23 56° E
ASTEX 1 3.5 23:09:53 74° N 23:09:53 74° N 23:14:27 10° N
Cosmos 2151 Rocket 4.3 23:07:53 10° N 23:11:14 51° N 23:11:14 51° N
Meteor 2-6 Rocket 4.2 23:13:49 84° S 23:14:03 90° SE 23:20:05 10° N
CZ-4B R/B 4.1 23:18:26 10° NNE 23:21:47 45° NNE 23:21:47 45° NNE
Cosmos 2333 Rocket 3.1 23:28:48 40° NE 23:28:48 40° NE 23:32:39 10° NNE
CZ-4C R/B 3.3 23:21:35 10° NNW 23:28:27 54° NE 23:30:05 46° E
ATLAS 5 CENTAUR R/B 3.5 23:23:29 10° NW 23:28:48 32° WSW 23:29:01 32° WSW
Cosmos 2333 4.3 23:29:22 76° WNW 23:29:22 76° WNW 23:35:07 10° NNE
Cosmos 2237 Rocket 3.4 23:38:23 32° NE 23:38:23 32° NE 23:41:39 10° NE
Cosmos 2278 Rocket 2.5 23:32:57 10° NNW 23:37:59 61° NNE 23:37:59 61° NNE
Meteor 1-27 Rocket 3.9 23:44:16 69° NNW 23:44:16 69° NNW 23:49:19 10° N
Cosmos 1844 Rocket 3.5 23:44:36 10° NW 23:49:04 41° W 23:49:04 41° W
Cosmos 1553 Rocket 4.2 23:52:35 62° W 23:52:50 62° W 23:59:03 10° N
